"startDT [UTC]","vpos","CH4 [ppm]","stdev(CH4) [ppm]","CO2 [ppm]","stdev(CO2) [ppm]","H2O [ppm]","stdev(H2O)","p_LGR [torr]","T_LGR [C]","mt1_LGR [us]","mt2_LGR [us]","T_ECpre [C]","T_EC1 [C]","T_EC2 [C]","p_inlet [hPa]","p_in [hPa]","p_out [hPa]","T_inlet [C]","RH_inlet [%]","dwpt_inlet [C]","T_vent [C]","RH_vent [%]","dwpt_vent [C]","flow_vent [l min-1]","flow_inlet [l min-1]","dwpt_sample [C]","T_room [C]"
2012-11-17 00:00:00,0.0,1.9232,0.0011,404.58,0.22,66.5,32.4,138.12,27.75,24.64,36.36,0.04,-272.75,-272.75,-43,555,-921,22.4,2.9,-25.1,22.4,3.0,-24.9,5.73,2.32,-26.9,27.4
2012-11-17 00:01:00,0.0,1.9232,0.0010,404.47,0.23,62.6,37.1,138.12,27.75,24.63,36.37,0.04,-272.75,-272.75,-43,555,-921,22.4,3.0,-25.0,22.4,3.0,-24.8,5.73,2.35,-27.0,27.4
2012-11-17 00:02:00,0.0,1.9233,0.0011,404.46,0.23,63.7,38.6,138.12,27.75,24.63,36.36,0.04,-272.75,-272.75,-43,555,-920,22.4,3.0,-25.0,22.4,3.1,-24.7,5.73,2.43,-26.9,27.4
2012-11-17 00:03:00,0.0,1.9225,0.0010,404.52,0.25,67.1,39.9,138.12,27.75,24.64,36.36,0.04,-272.75,-272.75,-43,556,-921,22.4,3.0,-25.0,22.4,3.1,-24.7,5.73,2.37,-26.9,27.4
2012-11-17 00:04:00,0.0,1.9226,0.0012,404.44,0.24,65.6,38.5,138.12,27.75,24.64,36.36,0.04,-272.75,-272.75,-43,555,-921,22.4,3.0,-24.9,22.4,3.1,-24.7,5.73,2.31,-26.9,27.4
2012-11-17 00:05:00,0.0,1.9231,0.0009,404.45,0.24,74.4,39.1,138.12,27.76,24.64,36.37,0.04,-272.75,-272.75,-43,555,-921,22.4,3.0,-25.0,22.4,3.1,-24.7,5.73,2.40,-26.9,27.4
2012-11-17 00:06:00,0.0,1.9235,0.0011,404.47,0.26,65.2,33.0,138.12,27.76,24.64,36.36,0.04,-272.75,-272.75,-43,555,-921,22.4,3.0,-25.0,22.4,3.0,-24.7,5.73,2.43,-26.9,27.4
2012-11-17 00:07:00,0.0,1.9230,0.0009,404.57,0.22,63.7,41.0,138.12,27.76,24.64,36.35,0.04,-272.75,-272.75,-43,556,-921,22.4,3.0,-24.9,22.4,3.1,-24.7,5.73,2.33,-26.9,27.4
2012-11-17 00:08:00,0.0,1.9230,0.0011,404.41,0.23,68.7,42.1,138.12,27.76,24.64,36.36,0.04,-272.75,-272.75,-43,556,-920,22.4,3.0,-24.9,22.4,3.1,-24.7,5.73,2.33,-26.9,27.4
2012-11-17 00:09:00,0.0,1.9231,0.0012,404.55,0.21,74.7,40.5,138.12,27.76,24.64,36.35,0.04,-272.75,-272.75,-43,555,-921,22.5,3.0,-24.8,22.4,3.1,-24.6,5.73,2.42,-26.9,27.4
2012-11-17 00:10:00,0.0,1.9229,0.0008,404.48,0.22,65.7,35.5,138.12,27.76,24.64,36.36,0.04,-272.75,-272.75,-43,556,-921,22.5,3.0,-24.8,22.5,3.1,-24.6,5.73,2.39,-26.9,27.4
2012-11-17 00:11:00,0.0,1.9232,0.0012,404.43,0.25,77.3,36.6,138.12,27.77,24.64,36.37,0.04,-272.75,-272.75,-43,556,-921,22.5,3.0,-24.9,22.5,3.1,-24.6,5.73,2.31,-26.9,27.4
2012-11-17 00:12:00,0.0,1.9234,0.0012,404.46,0.23,76.5,38.4,138.12,27.77,24.64,36.36,0.04,-272.75,-272.75,-42,556,-921,22.5,3.0,-24.8,22.5,3.1,-24.6,5.73,2.38,-26.9,27.4
2012-11-17 00:13:00,0.0,1.9226,0.0011,404.48,0.22,68.6,39.7,138.12,27.77,24.64,36.36,0.04,-272.75,-272.75,-43,555,-921,22.4,3.0,-24.9,22.5,3.1,-24.6,5.73,2.43,-26.9,27.4
2012-11-17 00:14:00,0.0,1.9231,0.0011,404.41,0.21,66.1,42.0,138.12,27.77,24.64,36.36,0.04,-272.75,-272.75,-43,556,-921,22.5,3.0,-24.8,22.5,3.1,-24.6,5.73,2.34,-26.9,27.4
2012-11-17 00:15:00,0.0,1.9231,0.0011,404.46,0.28,74.2,39.8,138.12,27.77,24.64,36.36,0.04,-272.76,-272.75,-43,555,-921,22.5,3.0,-24.9,22.5,3.1,-24.7,5.73,2.32,-26.9,27.4
2012-11-17 00:16:00,0.0,1.9229,0.0010,404.60,0.23,67.2,33.8,138.12,27.77,24.64,36.35,0.04,-272.75,-272.75,-42,556,-921,22.5,3.0,-25.0,22.5,3.1,-24.6,5.73,2.42,-26.9,27.4
2012-11-17 00:17:00,0.0,1.9236,0.0011,404.39,0.23,69.3,41.7,138.12,27.77,24.64,36.37,0.04,-272.75,-272.75,-43,556,-920,22.5,3.0,-24.9,22.5,3.1,-24.6,5.73,2.39,-26.9,27.4
2012-11-17 00:18:00,0.0,1.9241,0.0010,404.52,0.19,80.3,35.5,138.12,27.77,24.64,36.36,0.04,-272.75,-272.75,-43,556,-920,22.5,3.0,-24.9,22.5,3.0,-24.7,5.73,2.31,-26.9,27.4
2012-11-17 00:19:00,0.0,1.9241,0.0011,404.70,0.21,70.8,40.2,138.12,27.77,24.64,36.35,0.04,-272.75,-272.75,-43,556,-922,22.5,3.0,-25.0,22.5,3.0,-24.7,5.73,2.39,-26.9,27.5
2012-11-17 00:20:00,0.0,1.9242,0.0010,404.66,0.24,73.3,43.9,138.12,27.78,24.64,36.36,0.04,-272.75,-272.75,-43,555,-922,22.5,3.0,-24.9,22.5,3.0,-24.7,5.73,2.43,-26.9,27.5
2012-11-17 00:21:00,0.0,1.9235,0.0010,404.49,0.24,74.4,37.2,138.12,27.78,24.64,36.36,0.04,-272.75,-272.75,-42,555,-922,22.5,3.0,-24.9,22.5,3.0,-24.7,5.73,2.33,-26.9,27.5
2012-11-17 00:22:00,0.0,1.9232,0.0011,404.45,0.23,75.8,40.0,138.12,27.78,24.64,36.36,0.04,-272.75,-272.75,-43,556,-923,22.5,3.0,-24.9,22.5,3.1,-24.6,5.73,2.33,-26.9,27.4
2012-11-17 00:23:00,0.0,1.9238,0.0012,404.52,0.24,68.4,39.4,138.12,27.79,24.64,36.36,0.04,-272.75,-272.75,-48,557,-921,22.5,3.0,-24.8,22.5,3.1,-24.6,5.73,2.42,-26.9,27.5
2012-11-17 00:24:00,0.0,1.9235,0.0011,404.59,0.20,69.2,40.4,138.12,27.79,24.64,36.35,0.04,-272.75,-272.75,-47,556,-918,22.5,3.0,-24.8,22.5,3.1,-24.6,5.73,2.40,-26.9,27.5
2012-11-17 00:25:00,0.0,1.9241,0.0010,404.48,0.22,71.2,41.4,138.12,27.79,24.64,36.37,0.04,-272.75,-272.76,-39,556,-920,22.5,3.0,-24.8,22.5,3.1,-24.6,5.73,2.31,-26.9,27.5
2012-11-17 00:26:00,0.0,1.9239,0.0009,404.65,0.24,69.5,37.6,138.12,27.79,24.64,36.36,0.04,-272.75,-272.75,-43,553,-921,22.5,3.0,-24.8,22.5,3.1,-24.6,5.73,2.38,-26.9,27.5
2012-11-17 00:27:00,0.0,1.9240,0.0010,404.50,0.22,82.3,35.1,138.12,27.80,24.64,36.37,0.04,-272.75,-272.75,-44,553,-921,22.5,3.0,-24.9,22.5,3.1,-24.6,5.73,2.43,-26.9,27.5
2012-11-17 00:28:00,0.0,1.9241,0.0011,404.50,0.20,65.9,39.1,138.12,27.80,24.64,36.37,0.04,-272.75,-272.75,-43,556,-921,22.5,3.0,-24.8,22.5,3.1,-24.6,5.73,2.34,-26.9,27.5
2012-11-17 00:29:00,0.0,1.9246,0.0010,404.53,0.23,71.3,41.7,138.12,27.80,24.64,36.36,0.04,-272.75,-272.75,-43,555,-921,22.5,3.0,-24.8,22.5,3.1,-24.6,5.73,2.32,-26.8,27.5
2012-11-17 00:30:00,0.0,1.9243,0.0010,404.59,0.23,74.7,34.8,138.12,27.80,24.64,36.37,0.04,-272.75,-272.75,-43,556,-920,22.5,3.0,-24.8,22.5,3.1,-24.6,5.73,2.41,-26.9,27.5
2012-11-17 00:31:00,0.0,1.9246,0.0011,404.64,0.24,75.2,39.1,138.12,27.81,24.64,36.36,0.04,-272.75,-272.75,-43,556,-921,22.5,3.0,-24.8,22.5,3.1,-24.6,5.73,2.40,-26.9,27.5
2012-11-17 00:32:00,0.0,1.9246,0.0010,404.63,0.21,76.6,43.1,138.12,27.81,24.64,36.36,0.04,-272.76,-272.75,-43,556,-921,22.5,3.0,-24.9,22.5,3.1,-24.6,5.73,2.31,-26.8,27.5
2012-11-17 00:33:00,0.0,1.9248,0.0011,404.67,0.24,71.5,38.6,138.12,27.81,24.64,36.36,0.04,-272.75,-272.75,-43,556,-921,22.5,3.0,-24.9,22.5,3.1,-24.6,5.73,2.36,-26.8,27.5
2012-11-17 00:34:00,0.0,1.9243,0.0010,404.76,0.17,69.4,35.4,138.12,27.81,24.65,36.36,0.04,-272.75,-272.75,-43,556,-921,22.5,3.0,-24.9,22.5,3.0,-24.7,5.73,2.43,-26.8,27.5
2012-11-17 00:35:00,0.0,1.9250,0.0010,404.66,0.21,69.1,37.7,138.12,27.81,24.64,36.36,0.04,-272.75,-272.75,-43,556,-921,22.5,3.0,-24.9,22.5,3.0,-24.7,5.73,2.36,-26.8,27.5
2012-11-17 00:36:00,0.0,1.9240,0.0010,404.62,0.22,74.5,37.1,138.12,27.82,24.64,36.37,0.04,-272.76,-272.75,-43,556,-921,22.5,3.0,-24.8,22.5,3.1,-24.6,5.73,2.31,-26.8,27.5
2012-11-17 00:37:00,0.0,1.9246,0.0010,404.62,0.27,71.8,36.4,138.12,27.82,24.64,36.36,0.04,-272.75,-272.76,-43,556,-921,22.5,3.0,-24.8,22.5,3.1,-24.6,5.73,2.40,-26.8,27.5
2012-11-17 00:38:00,0.0,1.9244,0.0011,404.52,0.18,74.1,38.7,138.12,27.82,24.64,36.37,0.04,-272.75,-272.75,-43,556,-921,22.5,3.0,-24.8,22.5,3.1,-24.6,5.73,2.41,-26.8,27.5
2012-11-17 00:39:00,0.0,1.9247,0.0008,404.66,0.21,75.9,38.5,138.12,27.82,24.64,36.36,0.04,-272.75,-272.75,-43,556,-921,22.5,3.0,-24.8,22.5,3.1,-24.6,5.73,2.32,-26.8,27.5
2012-11-17 00:40:00,0.0,1.9244,0.0010,404.69,0.24,73.5,37.5,138.12,27.82,24.64,36.36,0.04,-272.75,-272.75,-43,556,-921,22.5,3.0,-24.8,22.5,3.1,-24.6,5.73,2.35,-26.8,27.5
2012-11-17 00:41:00,0.0,1.9242,0.0008,404.71,0.25,71.6,41.5,138.12,27.82,24.64,36.36,0.04,-272.75,-272.75,-43,556,-921,22.5,3.0,-24.8,22.5,3.1,-24.6,5.73,2.43,-26.8,27.5
2012-11-17 00:42:00,0.0,1.9244,0.0010,404.57,0.25,74.8,30.2,138.12,27.82,24.64,36.36,0.04,-272.76,-272.75,-43,556,-921,22.6,3.0,-24.8,22.5,3.1,-24.6,5.73,2.36,-26.8,27.5
2012-11-17 00:43:00,0.0,1.9244,0.0010,404.50,0.23,72.0,40.5,138.12,27.83,24.64,36.37,0.04,-272.75,-272.75,-43,556,-921,22.6,3.0,-24.8,22.5,3.1,-24.5,5.73,2.31,-26.8,27.6
2012-11-17 00:44:00,0.0,1.9238,0.0010,404.60,0.22,65.5,33.8,138.12,27.83,24.64,36.36,0.04,-272.75,-272.75,-43,556,-921,22.6,3.0,-24.7,22.5,3.1,-24.5,5.73,2.41,-26.8,27.6
2012-11-17 00:45:00,0.0,1.9240,0.0012,404.40,0.21,65.9,37.4,138.12,27.83,24.64,36.37,0.04,-272.75,-272.75,-43,556,-921,22.6,3.0,-24.7,22.5,3.1,-24.5,5.73,2.41,-26.8,27.5
2012-11-17 00:46:00,0.0,1.9241,0.0009,404.41,0.21,76.0,39.5,138.12,27.83,24.64,36.37,0.04,-272.75,-272.75,-43,556,-921,22.6,3.0,-24.7,22.5,3.1,-24.5,5.73,2.32,-26.8,27.5
2012-11-17 00:47:00,0.0,1.9233,0.0009,404.40,0.21,73.3,41.9,138.12,27.84,24.64,36.37,0.04,-272.75,-272.75,-43,556,-921,22.6,3.0,-24.7,22.5,3.1,-24.5,5.73,2.36,-26.8,27.6
2012-11-17 00:48:00,0.0,1.9238,0.0010,404.46,0.26,74.3,41.1,138.12,27.84,24.64,36.36,0.04,-272.75,-272.75,-43,556,-921,22.6,3.0,-24.7,22.6,3.1,-24.5,5.73,2.43,-26.8,27.6
2012-11-17 00:49:00,0.0,1.9241,0.0013,404.55,0.21,85.3,35.0,138.12,27.84,24.64,36.36,0.04,-272.75,-272.75,-43,557,-921,22.6,3.0,-24.7,22.6,3.1,-24.4,5.73,2.36,-26.8,27.6
2012-11-17 00:50:00,0.0,1.9239,0.0010,404.57,0.22,79.1,37.3,138.12,27.84,24.64,36.36,0.04,-272.75,-272.75,-43,556,-921,22.6,3.0,-24.7,22.6,3.1,-24.4,5.73,2.31,-26.8,27.5
2012-11-17 00:51:00,0.0,1.9246,0.0012,404.65,0.21,79.4,41.8,138.12,27.84,24.64,36.36,0.04,-272.75,-272.75,-43,556,-921,22.6,3.0,-24.7,22.6,3.1,-24.4,5.73,2.41,-26.8,27.6
2012-11-17 00:52:00,0.0,1.9247,0.0009,404.63,0.26,79.7,30.8,138.12,27.85,24.64,36.36,0.04,-272.75,-272.75,-43,557,-921,22.6,3.0,-24.7,22.6,3.1,-24.5,5.73,2.41,-26.8,27.6
2012-11-17 00:53:00,0.0,1.9245,0.0010,404.62,0.22,69.4,43.1,138.12,27.85,24.64,36.37,0.04,-272.75,-272.75,-43,556,-921,22.6,3.0,-24.7,22.6,3.1,-24.5,5.73,2.32,-26.8,27.6
2012-11-17 00:54:00,0.0,1.9251,0.0010,404.68,0.20,73.3,41.2,138.12,27.85,24.64,36.36,0.04,-272.75,-272.75,-43,556,-921,22.6,3.0,-24.8,22.6,3.1,-24.6,5.73,2.35,-26.6,27.6
2012-11-17 00:55:00,0.0,1.9250,0.0010,404.64,0.22,75.6,42.4,138.11,27.85,24.64,36.37,0.04,-272.75,-272.75,-43,557,-921,22.6,3.0,-24.8,22.6,3.1,-24.5,5.73,2.43,-26.4,27.6
2012-11-17 00:56:00,0.0,1.9255,0.0011,404.71,0.22,66.1,37.7,138.12,27.85,24.64,36.36,0.04,-272.75,-272.75,-43,557,-921,22.6,3.0,-24.8,22.6,3.1,-24.5,5.73,2.36,-26.4,27.6
2012-11-17 00:57:00,0.0,1.9252,0.0012,404.76,0.22,68.1,39.6,138.12,27.86,24.64,36.36,0.04,-272.75,-272.75,-43,557,-921,22.6,3.0,-24.8,22.6,3.1,-24.5,5.73,2.31,-26.4,27.5
2012-11-17 00:58:00,0.0,1.9253,0.0010,404.71,0.20,69.7,37.0,138.12,27.86,24.64,36.36,0.04,-272.75,-272.75,-43,557,-921,22.6,3.0,-24.8,22.6,3.1,-24.5,5.73,2.40,-26.4,27.5
2012-11-17 00:59:00,0.0,1.9249,0.0009,404.59,0.28,74.6,33.0,138.12,27.86,24.64,36.37,0.04,-272.75,-272.75,-43,557,-921,22.6,3.0,-24.7,22.6,3.1,-24.5,5.73,2.41,-26.4,27.5
2012-11-17 01:00:00,0.0,1.9249,0.0010,404.63,0.24,83.1,40.1,138.12,27.86,24.64,36.36,0.04,-272.75,-272.75,-43,557,-921,22.6,3.0,-24.8,22.6,3.1,-24.5,5.73,2.31,-26.4,27.5
2012-11-17 01:01:00,0.0,1.9248,0.0009,404.57,0.23,73.1,39.4,138.12,27.87,24.64,36.37,0.04,-272.75,-272.75,-43,556,-921,22.6,3.0,-24.7,22.6,3.1,-24.6,5.73,2.35,-26.4,27.6
2012-11-17 01:02:00,0.0,1.9245,0.0011,404.60,0.21,70.3,36.5,138.12,27.87,24.64,36.36,0.04,-272.75,-272.75,-43,556,-921,22.6,3.0,-24.8,22.6,3.1,-24.5,5.73,2.43,-26.4,27.6
2012-11-17 01:03:00,0.0,1.9250,0.0009,404.61,0.27,79.9,40.7,138.12,27.87,24.64,36.36,0.04,-272.75,-272.75,-43,556,-920,22.6,3.0,-24.7,22.6,3.1,-24.5,5.73,2.35,-26.4,27.6
2012-11-17 01:04:00,0.0,1.9247,0.0010,404.61,0.25,73.4,39.6,138.12,27.87,24.64,36.36,0.04,-272.75,-272.75,-43,557,-921,22.6,3.0,-24.7,22.6,3.1,-24.4,5.73,2.31,-26.4,27.6
2012-11-17 01:05:00,0.0,1.9247,0.0009,404.59,0.21,72.0,34.0,138.12,27.88,24.64,36.36,0.04,-272.75,-272.75,-43,557,-920,22.7,3.0,-24.7,22.6,3.1,-24.5,5.73,2.41,-26.4,27.6
2012-11-17 01:06:00,0.0,1.9244,0.0012,404.45,0.28,67.2,36.6,138.12,27.88,24.64,36.37,0.04,-272.75,-272.75,-43,557,-921,22.6,3.0,-24.5,22.6,3.1,-24.5,5.73,2.39,-26.4,27.6
2012-11-17 01:07:00,0.0,1.9240,0.0009,404.47,0.25,74.9,36.7,138.12,27.88,24.64,36.36,0.04,-272.75,-272.75,-43,557,-921,22.6,3.0,-24.6,22.6,3.1,-24.4,5.73,2.31,-26.4,27.6
2012-11-17 01:08:00,0.0,1.9240,0.0009,404.41,0.22,80.9,37.2,138.12,27.88,24.64,36.36,0.04,-272.75,-272.75,-43,557,-921,22.7,3.0,-24.6,22.6,3.1,-24.3,5.73,2.36,-26.4,27.6
2012-11-17 01:09:00,0.0,1.9240,0.0010,404.51,0.26,73.7,31.9,138.12,27.88,24.64,36.35,0.04,-272.75,-272.75,-43,557,-921,22.6,3.1,-24.5,22.6,3.1,-24.4,5.73,2.43,-26.4,27.6
2012-11-17 01:10:00,0.0,1.9243,0.0010,404.47,0.22,86.9,37.9,138.12,27.89,24.64,36.36,0.04,-272.75,-272.75,-43,557,-921,22.6,3.1,-24.5,22.6,3.1,-24.3,5.73,2.34,-26.4,27.6
2012-11-17 01:11:00,0.0,1.9239,0.0011,404.32,0.29,74.4,40.0,138.12,27.89,24.64,36.37,0.04,-272.75,-272.75,-43,557,-920,22.7,3.1,-24.5,22.6,3.1,-24.3,5.73,2.32,-26.4,27.6
2012-11-17 01:12:00,0.0,1.9239,0.0010,404.25,0.24,68.6,37.3,138.12,27.89,24.64,36.37,0.04,-272.75,-272.75,-43,557,-921,22.6,3.1,-24.5,22.6,3.1,-24.3,5.73,2.41,-26.4,27.6
2012-11-17 01:13:00,0.0,1.9240,0.0011,404.30,0.22,77.6,31.6,138.12,27.89,24.64,36.37,0.04,-272.75,-272.75,-43,557,-921,22.6,3.0,-24.6,22.6,3.1,-24.3,5.73,2.39,-26.4,27.6
2012-11-17 01:14:00,0.0,1.9239,0.0010,404.24,0.21,80.2,43.6,138.12,27.89,24.64,36.37,0.04,-272.75,-272.75,-43,557,-920,22.6,3.1,-24.5,22.6,3.1,-24.2,5.73,2.31,-26.4,27.6
2012-11-17 01:15:00,0.0,1.9239,0.0009,404.23,0.23,82.7,39.7,138.12,27.90,24.64,36.37,0.04,-272.75,-272.75,-43,557,-920,22.6,3.1,-24.5,22.6,3.1,-24.2,5.73,2.37,-26.4,27.6
2012-11-17 01:16:00,0.0,1.9233,0.0010,404.23,0.25,84.7,36.4,138.12,27.90,24.64,36.37,0.04,-272.75,-272.75,-43,557,-920,22.6,3.1,-24.4,22.6,3.1,-24.2,5.73,2.42,-26.4,27.6
2012-11-17 01:17:00,0.0,1.9232,0.0010,404.29,0.21,74.2,39.4,138.12,27.90,24.65,36.37,0.04,-272.75,-272.75,-43,557,-920,22.6,3.1,-24.4,22.6,3.1,-24.2,5.73,2.35,-26.4,27.6
2012-11-17 01:18:00,0.0,1.9238,0.0010,404.31,0.24,64.6,35.5,138.12,27.90,24.64,36.36,0.04,-272.75,-272.75,-43,557,-920,22.6,3.1,-24.4,22.7,3.1,-24.2,5.73,2.32,-26.4,27.6
2012-11-17 01:19:00,0.0,1.9240,0.0011,404.42,0.24,84.3,34.9,138.12,27.90,24.64,36.36,0.04,-272.75,-272.75,-43,557,-921,22.6,3.1,-24.5,22.6,3.1,-24.2,5.73,2.39,-26.4,27.6
2012-11-17 01:20:00,0.0,1.9240,0.0010,404.34,0.25,70.7,35.6,138.12,27.91,24.64,36.36,0.04,-272.75,-272.75,-43,557,-920,22.6,3.0,-24.6,22.6,3.1,-24.3,5.73,2.42,-26.4,27.6
2012-11-17 01:21:00,0.0,1.9243,0.0010,404.33,0.23,72.9,38.4,138.12,27.91,24.64,36.36,0.04,-272.75,-272.75,-43,557,-921,22.6,3.1,-24.5,22.6,3.1,-24.2,5.73,2.33,-26.4,27.6
2012-11-17 01:22:00,0.0,1.9235,0.0013,404.33,0.22,77.9,36.9,138.12,27.91,24.64,36.36,0.04,-272.75,-272.75,-43,557,-920,22.6,3.1,-24.5,22.6,3.1,-24.2,5.73,2.33,-26.4,27.6
2012-11-17 01:23:00,0.0,1.9235,0.0011,404.25,0.28,75.9,39.9,138.12,27.91,24.64,36.36,0.04,-272.75,-272.75,-43,557,-920,22.6,3.1,-24.5,22.6,3.1,-24.2,5.73,2.42,-26.4,27.6
2012-11-17 01:24:00,0.0,1.9222,0.0009,404.05,0.21,80.0,37.2,138.12,27.91,24.64,36.36,0.04,-272.75,-272.75,-43,557,-920,22.6,3.1,-24.3,22.6,3.2,-24.1,5.73,2.38,-26.4,27.6
2012-11-17 01:25:00,0.0,1.9225,0.0010,403.97,0.24,83.2,42.5,138.12,27.91,24.64,36.37,0.04,-272.75,-272.75,-44,557,-920,22.6,3.1,-24.3,22.6,3.2,-24.0,5.73,2.30,-26.4,27.6
2012-11-17 01:26:00,0.0,1.9225,0.0012,403.97,0.25,73.2,36.9,138.12,27.92,24.64,36.37,0.04,-272.75,-272.75,-44,557,-920,22.6,3.1,-24.2,22.6,3.2,-24.0,5.73,2.38,-26.4,27.6
2012-11-17 01:27:00,0.0,1.9224,0.0010,403.98,0.21,83.4,38.7,138.12,27.92,24.64,36.37,0.04,-272.75,-272.75,-43,557,-921,22.6,3.1,-24.2,22.6,3.2,-24.0,5.73,2.42,-26.4,27.6
2012-11-17 01:28:00,0.0,1.9224,0.0010,404.02,0.25,76.1,38.2,138.12,27.92,24.64,36.36,0.04,-272.75,-272.75,-43,557,-920,22.6,3.1,-24.2,22.6,3.2,-24.0,5.73,2.34,-26.4,27.6
2012-11-17 01:29:00,0.0,1.9226,0.0009,404.06,0.21,83.2,32.1,138.12,27.92,24.64,36.36,0.04,-272.75,-272.75,-43,557,-920,22.6,3.1,-24.2,22.7,3.2,-24.0,5.73,2.32,-26.4,27.6
2012-11-17 01:30:00,0.0,1.9231,0.0009,404.04,0.23,75.3,31.1,138.12,27.92,24.64,36.37,0.04,-272.75,-272.75,-44,557,-920,22.6,3.1,-24.2,22.6,3.2,-24.0,5.73,2.41,-26.4,27.6
2012-11-17 01:31:00,0.0,1.9229,0.0010,404.02,0.18,83.4,34.9,138.12,27.92,24.64,36.37,0.04,-272.75,-272.75,-43,557,-921,22.6,3.1,-24.3,22.7,3.2,-24.0,5.73,2.40,-26.4,27.6
2012-11-17 01:32:00,0.0,1.9226,0.0008,403.90,0.25,67.4,39.6,138.12,27.92,24.64,36.38,0.04,-272.75,-272.75,-43,557,-920,22.6,3.1,-24.4,22.6,3.2,-24.0,5.73,2.32,-26.4,27.6
2012-11-17 01:33:00,0.0,1.9230,0.0009,404.13,0.22,73.3,34.8,138.12,27.92,24.64,36.36,0.04,-272.75,-272.75,-43,557,-921,22.6,3.1,-24.3,22.6,3.2,-24.1,5.73,2.33,-26.4,27.6
2012-11-17 01:34:00,0.0,1.9231,0.0008,404.09,0.21,92.8,35.2,138.12,27.92,24.64,36.37,0.04,-272.75,-272.75,-43,557,-921,22.6,3.1,-24.3,22.6,3.2,-24.0,5.73,2.42,-26.4,27.6
2012-11-17 01:35:00,0.0,1.9234,0.0011,404.07,0.25,70.2,35.2,138.12,27.93,24.64,36.37,0.04,-272.75,-272.75,-43,557,-921,22.7,3.1,-24.3,22.6,3.2,-24.1,5.73,2.39,-26.4,27.6
2012-11-17 01:36:00,0.0,1.9239,0.0010,404.04,0.21,72.2,33.8,138.12,27.93,24.64,36.37,0.04,-272.75,-272.75,-43,557,-921,22.7,3.1,-24.3,22.6,3.2,-24.1,5.73,2.31,-26.4,27.5
2012-11-17 01:37:00,0.0,1.9236,0.0011,403.99,0.20,71.0,37.8,138.12,27.93,24.64,36.37,0.04,-272.75,-272.75,-43,557,-921,22.6,3.1,-24.3,22.7,3.2,-24.1,5.73,2.35,-26.4,27.6
2012-11-17 01:38:00,0.0,1.9238,0.0010,404.00,0.20,75.1,36.8,138.12,27.93,24.64,36.38,0.04,-272.75,-272.75,-43,557,-921,22.6,3.1,-24.4,22.6,3.2,-24.1,5.73,2.42,-26.5,27.6
2012-11-17 01:39:00,0.0,1.9244,0.0010,404.16,0.25,71.6,41.4,138.12,27.93,24.64,36.37,0.04,-272.75,-272.75,-43,557,-921,22.6,3.1,-24.4,22.6,3.1,-24.3,5.73,2.39,-26.4,27.5
2012-11-17 01:40:00,0.0,1.9242,0.0010,404.26,0.23,74.9,32.9,138.12,27.93,24.64,36.36,0.04,-272.75,-272.75,-43,557,-921,22.6,3.1,-24.5,22.6,3.1,-24.3,5.73,2.32,-26.4,27.5
2012-11-17 01:41:00,0.0,1.9244,0.0010,404.29,0.20,71.1,39.0,138.12,27.93,24.64,36.36,0.04,-272.75,-272.75,-43,557,-921,22.6,3.0,-24.6,22.6,3.1,-24.4,5.73,2.33,-26.4,27.5
2012-11-17 01:42:00,0.0,1.9238,0.0011,404.16,0.21,78.6,33.4,138.12,27.93,24.64,36.36,0.04,-272.75,-272.75,-43,557,-921,22.6,3.0,-24.6,22.6,3.1,-24.4,5.73,2.41,-26.4,27.6
2012-11-17 01:43:00,0.0,1.9240,0.0010,404.09,0.20,73.5,34.2,138.12,27.93,24.64,36.37,0.04,-272.75,-272.75,-43,557,-921,22.6,3.0,-24.8,22.6,3.1,-24.4,5.73,2.40,-26.4,27.6
2012-11-17 01:44:00,0.0,1.9239,0.0008,404.06,0.23,86.0,41.5,138.12,27.93,24.64,36.37,0.04,-272.75,-272.75,-43,557,-921,22.6,3.0,-24.6,22.6,3.1,-24.4,5.73,2.32,-26.4,27.6
2012-11-17 01:45:00,0.0,1.9243,0.0010,404.09,0.28,85.4,41.1,138.12,27.93,24.64,36.37,0.04,-272.75,-272.75,-43,557,-921,22.6,3.0,-24.6,22.6,3.1,-24.4,5.73,2.33,-26.4,27.6
2012-11-17 01:46:00,0.0,1.9240,0.0010,404.19,0.26,78.8,37.5,138.12,27.94,24.64,36.36,0.04,-272.75,-272.75,-43,557,-921,22.6,3.0,-24.7,22.6,3.1,-24.4,5.73,2.42,-26.4,27.6
2012-11-17 01:47:00,0.0,1.9239,0.0009,404.11,0.24,76.9,36.1,138.12,27.94,24.64,36.36,0.04,-272.75,-272.75,-43,557,-920,22.6,3.0,-24.7,22.6,3.1,-24.5,5.73,2.39,-26.4,27.6
2012-11-17 01:48:00,0.0,1.9236,0.0009,404.13,0.21,71.5,39.5,138.12,27.94,24.64,36.36,0.04,-272.75,-272.75,-43,557,-921,22.6,3.0,-24.8,22.6,3.1,-24.5,5.73,2.31,-26.4,27.6
2012-11-17 01:49:00,0.0,1.9234,0.0011,404.12,0.19,75.7,40.3,138.12,27.94,24.64,36.37,0.04,-272.75,-272.75,-43,557,-920,22.6,3.0,-24.9,22.6,3.0,-24.6,5.73,2.35,-26.4,27.5
2012-11-17 01:50:00,0.0,1.9239,0.0010,404.09,0.23,70.9,32.9,138.12,27.94,24.64,36.37,0.04,-272.75,-272.75,-43,557,-920,22.6,3.0,-24.8,22.6,3.0,-24.6,5.73,2.42,-26.4,27.5
2012-11-17 01:51:00,0.0,1.9240,0.0011,404.10,0.22,82.9,36.0,138.12,27.94,24.64,36.37,0.04,-272.75,-272.75,-43,557,-920,22.6,3.0,-24.8,22.6,3.0,-24.6,5.73,2.38,-26.4,27.6
2012-11-17 01:52:00,0.0,1.9236,0.0010,403.95,0.24,83.2,34.9,138.12,27.95,24.64,36.37,0.04,-272.75,-272.75,-43,557,-920,22.6,3.0,-24.9,22.6,3.0,-24.6,5.73,2.31,-26.4,27.5
2012-11-17 01:53:00,0.0,1.9237,0.0010,404.04,0.21,81.4,39.1,138.12,27.95,24.64,36.37,0.04,-272.75,-272.75,-43,557,-920,22.6,3.0,-24.9,22.6,3.0,-24.6,5.73,2.36,-26.4,27.5
2012-11-17 01:54:00,0.0,1.9237,0.0011,404.05,0.20,72.9,37.6,138.12,27.95,24.64,36.37,0.04,-272.75,-272.75,-43,557,-920,22.6,3.0,-24.8,22.6,3.0,-24.6,5.73,2.42,-26.4,27.5
2012-11-17 01:55:00,0.0,1.9232,0.0009,403.98,0.25,78.5,31.4,138.12,27.95,24.64,36.36,0.04,-272.75,-272.75,-43,557,-921,22.6,3.0,-24.8,22.6,3.1,-24.5,5.73,2.36,-26.4,27.5
2012-11-17 01:56:00,0.0,1.9233,0.0009,404.07,0.26,79.2,36.2,138.12,27.95,24.64,36.36,0.04,-272.75,-272.75,-43,557,-921,22.6,3.0,-24.8,22.6,3.1,-24.5,5.73,2.31,-26.4,27.5
2012-11-17 01:57:00,0.0,1.9230,0.0010,403.92,0.19,80.7,33.6,138.12,27.95,24.64,36.37,0.04,-272.75,-272.75,-43,557,-920,22.6,3.0,-24.8,22.6,3.1,-24.5,5.73,2.37,-26.4,27.5
2012-11-17 01:58:00,0.0,1.9229,0.0011,403.97,0.28,82.9,38.1,138.12,27.95,24.65,36.37,0.04,-272.75,-272.75,-43,557,-921,22.6,3.0,-24.8,22.6,3.1,-24.5,5.73,2.42,-26.4,27.6
2012-11-17 01:59:00,0.0,1.9230,0.0011,403.92,0.27,74.0,38.1,138.12,27.95,24.64,36.37,0.04,-272.75,-272.75,-43,557,-921,22.6,3.0,-24.7,22.6,3.1,-24.5,5.73,2.36,-26.4,27.5
2012-11-17 02:00:00,0.0,1.9234,0.0009,403.87,0.20,77.6,33.0,138.12,27.95,24.64,36.37,0.04,-272.75,-272.75,-43,557,-921,22.6,3.0,-24.8,22.6,3.1,-24.5,5.73,2.31,-26.4,27.5
2012-11-17 02:01:00,0.0,1.9237,0.0009,403.98,0.28,78.9,41.9,138.12,27.95,24.64,36.37,0.04,-272.75,-272.75,-43,557,-921,22.6,3.0,-24.8,22.6,3.1,-24.5,5.73,2.37,-26.4,27.5
2012-11-17 02:02:00,0.0,1.9233,0.0010,404.02,0.22,80.5,40.3,138.12,27.95,24.64,36.36,0.04,-272.75,-272.75,-43,557,-920,22.6,3.0,-24.9,22.6,3.0,-24.6,5.73,2.42,-26.4,27.5
2012-11-17 02:03:00,0.0,1.9233,0.0009,403.94,0.21,77.6,42.9,138.12,27.95,24.64,36.36,0.04,-272.75,-272.75,-43,557,-921,22.6,3.0,-24.8,22.6,3.0,-24.6,5.73,2.36,-26.4,27.5
2012-11-17 02:04:00,0.0,1.9224,0.0011,403.94,0.24,82.5,33.8,138.12,27.95,24.65,36.37,0.04,-272.75,-272.75,-43,557,-920,22.6,3.0,-24.8,22.6,3.0,-24.6,5.73,2.31,-26.4,27.5
2012-11-17 02:05:00,0.0,1.9226,0.0010,403.93,0.19,81.0,41.8,138.12,27.95,24.64,36.36,0.04,-272.75,-272.75,-43,557,-920,22.6,3.0,-24.8,22.6,3.0,-24.7,5.73,2.38,-26.4,27.5
2012-11-17 02:06:00,0.0,1.9224,0.0009,403.86,0.24,83.1,42.4,138.12,27.95,24.64,36.37,0.04,-272.75,-272.75,-43,557,-920,22.6,3.0,-24.8,22.6,3.0,-24.6,5.73,2.43,-26.4,27.5
2012-11-17 02:07:00,0.0,1.9216,0.0012,403.82,0.20,66.7,35.4,138.12,27.95,24.64,36.37,0.04,-272.75,-272.75,-43,557,-920,22.6,3.0,-24.8,22.6,3.0,-24.6,5.73,2.35,-26.4,27.5
2012-11-17 02:08:00,0.0,1.9219,0.0010,403.80,0.19,78.9,38.8,138.12,27.95,24.64,36.37,0.04,-272.75,-272.75,-43,557,-920,22.6,3.0,-24.7,22.6,3.1,-24.5,5.73,2.31,-26.4,27.5
2012-11-17 02:09:00,0.0,1.9221,0.0009,403.84,0.20,83.3,37.3,138.12,27.96,24.64,36.37,0.04,-272.75,-272.75,-43,557,-920,22.6,3.0,-24.8,22.6,3.1,-24.5,5.73,2.39,-26.4,27.5
2012-11-17 02:10:00,0.0,1.9222,0.0010,403.79,0.25,81.9,34.9,138.12,27.96,24.64,36.37,0.04,-272.76,-272.75,-43,557,-920,22.6,3.0,-24.8,22.6,3.1,-24.5,5.73,2.42,-26.4,27.5
2012-11-17 02:11:00,0.0,1.9224,0.0010,403.95,0.25,83.8,39.1,138.12,27.96,24.64,36.36,0.04,-272.75,-272.75,-43,557,-920,22.6,3.0,-24.9,22.6,3.0,-24.6,5.73,2.36,-26.4,27.5
2012-11-17 02:12:00,0.0,1.9221,0.0010,403.83,0.22,79.1,33.3,138.11,27.96,24.64,36.37,0.04,-272.75,-272.75,-43,557,-920,22.6,3.0,-24.9,22.6,3.0,-24.6,5.73,2.31,-26.4,27.5
2012-11-17 02:13:00,0.0,1.9219,0.0009,403.72,0.24,78.5,32.2,138.12,27.96,24.64,36.38,0.04,-272.75,-272.75,-43,557,-920,22.6,3.0,-24.9,22.6,3.0,-24.6,5.73,2.38,-26.4,27.5
2012-11-17 02:14:00,0.0,1.9219,0.0012,403.77,0.23,74.9,34.4,138.12,27.96,24.64,36.37,0.04,-272.75,-272.75,-43,557,-920,22.6,3.0,-24.8,22.6,3.0,-24.6,5.73,2.43,-26.5,27.5
2012-11-17 02:15:00,0.0,1.9222,0.0009,403.82,0.22,76.7,31.2,138.12,27.96,24.64,36.37,0.04,-272.75,-272.75,-43,557,-920,22.6,3.0,-24.8,22.6,3.1,-24.5,5.73,2.36,-26.4,27.5
2012-11-17 02:16:00,0.0,1.9223,0.0010,403.77,0.22,79.0,39.4,138.12,27.96,24.64,36.37,0.04,-272.75,-272.75,-43,557,-921,22.6,3.0,-24.7,22.6,3.1,-24.6,5.73,2.31,-26.4,27.5
2012-11-17 02:17:00,0.0,1.9221,0.0011,403.90,0.25,84.7,32.4,138.12,27.97,24.65,36.37,0.04,-272.75,-272.75,-43,557,-920,22.6,3.0,-24.8,22.6,3.1,-24.5,5.73,2.36,-26.4,27.5